Flag for Germany Weather past 2 weeks in Weinheim, Baden-Württemberg, Germany

Now
82 °F

Sunny.


Feels Like: 82 °F
Forecast: 61 / 79 °F
Wind: 6 mph from West

Location: Baden Wurttemberg - Neuostheim

Current Time: Aug 27, 2015 at 9:26:01 PM

Latest Report: Aug 27, 2015 at 8:50 PM


Visibility: 10 mi

Pressure: 29.80 "Hg

Humidity: 40%

Dew point: 55 °F

Location of WeinheimLocation

Historic Weather in Weinheim — Graph

°F

Weinheim temperature yesterday

Maximum temperature yesterday: 82 °F (at 4:20 PM)
Minimum temperature yesterday: 57 °F (at 5:20 AM)
Average temperature yesterday: 72 °F

Past Weeks' High & Low Weather Summary

 TemperatureHumidityPressure
High97 °F (Aug 13, 5:50 PM)100% (Aug 17, 9:20 PM)30.27 "Hg (Aug 17, 9:20 PM)
Low54 °F (Aug 19, 5:20 AM)23% (Aug 22, 2:50 PM)29.68 "Hg (Aug 23, 4:50 PM)
Average70 °F60%29.97 "Hg
* Reported Aug 12 7:20 PM — Aug 27 7:50 PM, Weinheim, Weather by CustomWeather, © 2015

Note: Actual official high and low records may vary slightly from our data, if they occured in-between our weather recording intervals... More about our weather records

Advertising

Weinheim weather history for previous 24 hours

 ConditionsComfort  
Time TempWeatherWind HumidityBarometerVisibility
7:50 PM
Thu, Aug 27
84 °FSunny.3 mph37%29.80 "Hg10 mi
7:20 PM86 °FSunny.3 mph33%29.80 "Hg10 mi
6:50 PM88 °FPassing clouds.7 mph31%29.80 "HgN/A
6:20 PM88 °FPassing clouds.8 mph29%29.80 "HgN/A
5:50 PM88 °FPassing clouds.13 mph29%29.80 "HgN/A
5:20 PM90 °FPassing clouds.12 mph26%29.80 "HgN/A
4:50 PM88 °FPassing clouds.12 mph29%29.80 "HgN/A
4:20 PM90 °FPassing clouds.12 mph29%29.80 "HgN/A
3:50 PM86 °FPassing clouds.12 mph33%29.83 "HgN/A
3:20 PM86 °FPassing clouds.12 mph33%29.83 "HgN/A
2:50 PM84 °FPassing clouds.10 mph37%29.83 "HgN/A
2:20 PM82 °FPassing clouds.10 mph37%29.83 "HgN/A
1:50 PM82 °FPassing clouds.10 mph40%29.86 "HgN/A
1:20 PM82 °FPassing clouds.12 mph37%29.86 "HgN/A
12:50 PM81 °FPassing clouds.8 mph42%29.89 "HgN/A
12:20 PM79 °FPassing clouds.8 mph45%29.89 "HgN/A
11:50 AM79 °FPassing clouds.8 mph48%29.89 "HgN/A
11:20 AM79 °FPassing clouds.6 mph48%29.92 "HgN/A
10:50 AM79 °FSunny.3 mph48%29.92 "Hg10 mi
10:20 AM75 °FPassing clouds.6 mph54%29.92 "HgN/A
9:50 AM75 °FPassing clouds.7 mph50%29.92 "HgN/A
9:20 AM73 °FPassing clouds.6 mph53%29.92 "HgN/A
8:50 AM72 °FPassing clouds.5 mph57%29.92 "HgN/A
8:20 AM68 °FSunny.6 mph64%29.92 "Hg10 mi
7:50 AM66 °FSunny.7 mph64%29.92 "Hg10 mi
7:20 AM66 °FClear.6 mph64%29.92 "Hg10 mi
6:50 AM66 °FPassing clouds.6 mph64%29.92 "HgN/A
5:50 AM68 °FPassing clouds.8 mph60%29.89 "HgN/A
5:20 AM68 °FPassing clouds.6 mph60%29.89 "HgN/A
Weather by CustomWeather, © 2015

See weather overviewHow to use our weather pages